TA2VIP-13 Weather Reports


time (UTC)temp
C
wind
direction
speed
KPH
gust
KPH
rain 1hr
cm
rain 24hr
cm
rain mn
cm
humidity
%
barometer
mb
20260509121938 17 230 9.7 9.7 0.00 0.00 0.00 50 1015.0
20260509120938 17 230 9.7 9.7 0.00 0.00 0.00 50 1015.0
20260509115938 17 230 9.7 9.7 0.00 0.00 0.00 50 1015.0
20260509114938 18 240 14.5 14.5 0.00 0.00 0.00 50 1015.0
20260509113938 18 240 14.5 14.5 0.00 0.00 0.00 50 1015.0
20260509112938 18 240 14.5 14.5 0.00 0.00 0.00 50 1015.0
20260509111938 20 250 12.9 12.9 0.00 0.00 0.00 50 1015.0
20260509110938 20 250 12.9 12.9 0.00 0.00 0.00 50 1015.0
20260509105938 20 250 12.9 12.9 0.00 0.00 0.00 50 1015.0
20260509104938 20 240 16.1 16.1 0.00 0.00 0.00 50 1015.0
20260509103938 20 240 16.1 16.1 0.00 0.00 0.00 50 1015.0
20260509102938 20 240 16.1 16.1 0.00 0.00 0.00 50 1015.0
20260509101938 20 170 9.7 9.7 0.00 0.00 0.00 50 1015.0
20260509100938 20 170 9.7 9.7 0.00 0.00 0.00 50 1015.0
20260509095938 20 170 9.7 9.7 0.00 0.00 0.00 50 1015.0
20260509094938 18 160 8.0 8.0 0.00 0.00 0.00 50 1015.0
20260509093938 18 160 8.0 8.0 0.00 0.00 0.00 50 1015.0
20260509092938 18 160 8.0 8.0 0.00 0.00 0.00 50 1015.0
20260509091938 18 0 0.0 0.0 0.00 0.00 0.00 50 1015.0
20260509090908 18 0 0.0 0.0 0.00 0.00 0.00 50 1015.0
20260509085908 18 0 0.0 0.0 0.00 0.00 0.00 50 1015.0
20260509084908 17 0 0.0 0.0 0.00 0.00 0.00 50 1015.0
20260509083908 17 0 0.0 0.0 0.00 0.00 0.00 50 1015.0
20260509082908 17 0 0.0 0.0 0.00 0.00 0.00 50 1015.0
20260509081908 16 0 0.0 0.0 0.00 0.00 0.00 50 1015.0
20260509080908 16 0 0.0 0.0 0.00 0.00 0.00 50 1015.0
20260509075908 16 0 0.0 0.0 0.00 0.00 0.00 50 1015.0
20260509074908 15 0 0.0 0.0 0.00 0.00 0.00 50 1015.0
20260509073908 15 0 0.0 0.0 0.00 0.00 0.00 50 1015.0
20260509072908 15 0 0.0 0.0 0.00 0.00 0.00 50 1015.0
20260509071908 15 0 0.0 0.0 0.00 0.00 0.00 50 1015.0
20260509070908 15 0 0.0 0.0 0.00 0.00 0.00 50 1015.0
20260509065908 15 0 0.0 0.0 0.00 0.00 0.00 50 1015.0
20260509064908 13 0 0.0 0.0 0.00 0.00 0.00 50 1015.0
20260509063908 13 0 0.0 0.0 0.00 0.00 0.00 50 1015.0
20260509062908 13 0 0.0 0.0 0.00 0.00 0.00 50 1015.0
20260509061908 12 240 6.4 6.4 0.00 0.00 0.00 50 1015.0
20260509060908 12 240 6.4 6.4 0.00 0.00 0.00 50 1015.0
20260509055908 12 240 6.4 6.4 0.00 0.00 0.00 50 1015.0
20260509054908 11 0 0.0 0.0 0.00 0.00 0.00 50 1015.0
20260509053838 11 0 0.0 0.0 0.00 0.00 0.00 50 1015.0
20260509052838 11 0 0.0 0.0 0.00 0.00 0.00 50 1015.0
20260509051838 11 0 0.0 0.0 0.00 0.00 0.00 50 1015.0
20260509050838 11 0 0.0 0.0 0.00 0.00 0.00 50 1015.0
20260509045838 11 0 0.0 0.0 0.00 0.00 0.00 50 1015.0
20260509044838 10 10 6.4 6.4 0.00 0.00 0.00 50 1015.0
20260509043838 10 10 6.4 6.4 0.00 0.00 0.00 50 1015.0
20260509042838 10 10 6.4 6.4 0.00 0.00 0.00 50 1015.0
20260509041838 10 0 0.0 0.0 0.00 0.00 0.00 50 1015.0
20260509040838 10 0 0.0 0.0 0.00 0.00 0.00 50 1015.0
20260509035838 10 0 0.0 0.0 0.00 0.00 0.00 50 1015.0
20260509034838 10 10 4.8 4.8 0.00 0.00 0.00 50 1015.0
20260509033838 10 10 4.8 4.8 0.00 0.00 0.00 50 1015.0
20260509032838 10 10 4.8 4.8 0.00 0.00 0.00 50 1015.0
20260509031838 10 80 4.8 4.8 0.00 0.00 0.00 50 1015.0
20260509030838 10 80 4.8 4.8 0.00 0.00 0.00 50 1015.0
20260509025838 10 80 4.8 4.8 0.00 0.00 0.00 50 1015.0
20260509024838 10 0 0.0 0.0 0.00 0.00 0.00 50 1015.0
20260509023838 10 0 0.0 0.0 0.00 0.00 0.00 50 1015.0
20260509022838 10 0 0.0 0.0 0.00 0.00 0.00 50 1015.0
20260509021838 10 320 1.6 1.6 0.00 0.00 0.00 50 1015.0
20260509020838 10 320 1.6 1.6 0.00 0.00 0.00 50 1015.0
20260509015839 10 320 1.6 1.6 0.00 0.00 0.00 50 1015.0
20260509014809 10 0 0.0 0.0 0.00 0.00 0.00 50 1015.0
20260509013809 10 0 0.0 0.0 0.00 0.00 0.00 50 1015.0
20260509012809 10 0 0.0 0.0 0.00 0.00 0.00 50 1015.0
20260509011809 8 0 0.0 0.0 0.00 0.00 0.00 50 1015.0
20260509010809 8 0 0.0 0.0 0.00 0.00 0.00 50 1015.0
20260509005809 8 0 0.0 0.0 0.00 0.00 0.00 50 1015.0
20260509004809 8 350 4.8 4.8 0.00 0.00 0.00 50 1015.0
20260509003809 8 350 4.8 4.8 0.00 0.00 0.00 50 1015.0
20260509002809 8 350 4.8 4.8 0.00 0.00 0.00 50 1015.0
20260509001809 10 0 0.0 0.0 0.00 0.00 0.00 50 1015.0
20260509000809 10 0 0.0 0.0 0.00 0.00 0.00 50 1015.0
20260508235809 10 0 0.0 0.0 0.00 0.00 0.00 50 1015.0
20260508234809 10 100 4.8 4.8 0.00 0.00 0.00 50 1015.0
20260508233809 10 100 4.8 4.8 0.00 0.00 0.00 50 1015.0
20260508232809 10 100 4.8 4.8 0.00 0.00 0.00 50 1015.0
20260508231809 10 0 0.0 0.0 0.00 0.00 0.00 50 1015.0
20260508230809 10 0 0.0 0.0 0.00 0.00 0.00 50 1015.0
20260508225809 10 0 0.0 0.0 0.00 0.00 0.00 50 1015.0
20260508224809 10 0 0.0 0.0 0.00 0.00 0.00 50 1015.0
20260508223809 10 0 0.0 0.0 0.00 0.00 0.00 50 1015.0
20260508222809 10 0 0.0 0.0 0.00 0.00 0.00 50 1015.0
20260508221809 10 0 0.0 0.0 0.00 0.00 0.00 50 1015.0
20260508220809 10 0 0.0 0.0 0.00 0.00 0.00 50 1015.0
20260508215809 10 0 0.0 0.0 0.00 0.00 0.00 50 1015.0
20260508214809 11 0 0.0 0.0 0.00 0.00 0.00 50 1015.0
20260508213739 11 0 0.0 0.0 0.00 0.00 0.00 50 1015.0
20260508212739 11 0 0.0 0.0 0.00 0.00 0.00 50 1015.0
20260508211739 12 0 0.0 0.0 0.00 0.00 0.00 50 1015.0
20260508210739 12 0 0.0 0.0 0.00 0.00 0.00 50 1015.0
20260508205739 12 0 0.0 0.0 0.00 0.00 0.00 50 1015.0
20260508204739 12 0 0.0 0.0 0.00 0.00 0.00 50 1015.0
20260508203739 12 0 0.0 0.0 0.00 0.00 0.00 50 1015.0
20260508202739 12 0 0.0 0.0 0.00 0.00 0.00 50 1015.0
20260508201739 15 130 6.4 6.4 0.00 0.00 0.00 50 1015.0
20260508200739 15 130 6.4 6.4 0.00 0.00 0.00 50 1015.0
20260508195739 15 130 6.4 6.4 0.00 0.00 0.00 50 1015.0
20260508194739 15 0 0.0 0.0 0.00 0.00 0.00 50 1015.0
20260508193739 15 0 0.0 0.0 0.00 0.00 0.00 50 1015.0
20260508192739 15 0 0.0 0.0 0.00 0.00 0.00 50 1015.0
20260508191739 15 350 4.8 4.8 0.00 0.00 0.00 50 1015.0
20260508190739 15 350 4.8 4.8 0.00 0.00 0.00 50 1015.0
20260508185739 15 350 4.8 4.8 0.00 0.00 0.00 50 1015.0
20260508184739 13 340 6.4 6.4 0.00 0.00 0.00 50 1015.0
20260508183739 13 340 6.4 6.4 0.00 0.00 0.00 50 1015.0
20260508182739 13 340 6.4 6.4 0.00 0.00 0.00 50 1015.0
20260508181739 15 180 6.4 6.4 0.00 0.00 0.00 50 1015.0
20260508180739 15 180 6.4 6.4 0.00 0.00 0.00 50 1015.0
20260508175739 15 180 6.4 6.4 0.00 0.00 0.00 50 1015.0
20260508174709 15 20 9.7 9.7 0.00 0.00 0.00 50 1015.0
20260508173709 15 20 9.7 9.7 0.00 0.00 0.00 50 1015.0
20260508172709 15 20 9.7 9.7 0.00 0.00 0.00 50 1015.0
20260508171709 17 0 0.0 0.0 0.00 0.00 0.00 50 1015.0
20260508170709 17 0 0.0 0.0 0.00 0.00 0.00 50 1015.0
20260508165709 17 0 0.0 0.0 0.00 0.00 0.00 50 1015.0
20260508164709 18 280 8.0 8.0 0.00 0.00 0.00 50 1015.0
20260508163709 18 280 8.0 8.0 0.00 0.00 0.00 50 1015.0
20260508162709 18 280 8.0 8.0 0.00 0.00 0.00 50 1015.0
20260508161709 20 270 9.7 9.7 0.00 0.00 0.00 50 1015.0
20260508160709 20 270 9.7 9.7 0.00 0.00 0.00 50 1015.0
20260508155709 20 270 9.7 9.7 0.00 0.00 0.00 50 1015.0
20260508154709 20 260 12.9 12.9 0.00 0.00 0.00 50 1015.0
20260508153709 20 260 12.9 12.9 0.00 0.00 0.00 50 1015.0
20260508152709 20 270 12.9 12.9 0.00 0.00 0.00 50 1015.0
20260508151709 20 250 14.5 14.5 0.00 0.00 0.00 50 1015.0
20260508150709 20 250 14.5 14.5 0.00 0.00 0.00 50 1015.0
20260508145709 20 250 14.5 14.5 0.00 0.00 0.00 50 1015.0
20260508144709 20 260 12.9 12.9 0.00 0.00 0.00 50 1015.0
20260508143709 20 260 12.9 12.9 0.00 0.00 0.00 50 1015.0
20260508142709 20 260 12.9 12.9 0.00 0.00 0.00 50 1015.0
20260508141709 20 260 12.9 12.9 0.00 0.00 0.00 50 1015.0
20260508140709 20 260 12.9 12.9 0.00 0.00 0.00 50 1015.0
20260508135709 20 260 12.9 12.9 0.00 0.00 0.00 50 1015.0
20260508134639 20 280 11.3 11.3 0.00 0.00 0.00 50 1015.0
20260508133639 20 280 11.3 11.3 0.00 0.00 0.00 50 1015.0
20260508132640 20 280 11.3 11.3 0.00 0.00 0.00 50 1015.0
20260508131639 21 360 4.8 4.8 0.00 0.00 0.00 50 1015.0
20260508130640 21 360 4.8 4.8 0.00 0.00 0.00 50 1015.0
20260508125640 21 360 4.8 4.8 0.00 0.00 0.00 50 1015.0
20260508124640 20 250 8.0 8.0 0.00 0.00 0.00 50 1015.0
20260508123640 20 250 8.0 8.0 0.00 0.00 0.00 50 1015.0